Regional Weather Roundup
Issued by NWS

Home | Current Version | Previous Version | Graphics & Text | Print | Product List | Glossary Off
Versions: 1 2 3 4 5 6 7 8 9 10 11 12 13 14 15 16 17 18 19 20 21 22 23 24 25 26 27 28 29 30 31 32 33 34 35 36 37 38 39 40 41 42 43 44 45 46 47 48 49 50

000
ASUS43 KMKX 301300
RWRWI

WISCONSIN REGIONAL WEATHER ROUNDUP
NATIONAL WEATHER SERVICE MILWAUKEE/SULLIVAN WI
800 AM CDT SAT MAY 30 2015

NOTE: "FAIR" INDICATES FEW OR NO CLOUDS BELOW 12,000 FEET WITH NO
SIGNIFICANT WEATHER AND/OR OBSTRUCTIONS TO VISIBILITY.

WIZ001-002-006>008-014>016-023>028-301400-
NORTHWEST WISCONSIN

CITY           SKY/WX    TMP DP  RH WIND       PRES   REMARKS
SUPERIOR ARPT  SUNNY     46  36  66 N8        30.24R
ASHLAND        CLOUDY    48  39  71 N14G22    30.23R
HAYWARD        CLOUDY    47  39  74 NE14      30.19R
SIREN          PTSUNNY   46  38  74 N9        30.20S
CUMBERLAND     CLOUDY    45  39  81 N9        30.17R
RICE LAKE      CLOUDY    48  40  75 N15G21    30.18R
CHETEK         CLOUDY    49  44  83 N12G17    30.16R
LADYSMITH      CLOUDY    49  45  85 N16       30.15R
EAU CLAIRE     CLOUDY    52  44  74 N10       30.12R
MENOMONIE      CLOUDY    51  45  79 N13       30.13S
NEW RICHMOND   MOSUNNY   48  41  77 N13G18    30.18R
OSCEOLA        MOSUNNY   46  42  86 N10       30.22R
$$

WIZ003>005-009-010-017-018-301400-
NORTH CENTRAL WISCONSIN

CITY           SKY/WX    TMP DP  RH WIND       PRES   REMARKS
MANITOWISH WTR CLOUDY    46  46 100 N8        30.13S FOG
ARBOR VITAE    CLOUDY    49  48  95 N10       30.12R
WOODRUFF       CLOUDY    49  48  95 N10       30.12R
RHINELANDER    LGT RAIN  50  47  89 NE9       30.11R FOG
EAGLE RIVER    DRIZZLE   48  46  93 NE12G17   30.12R
LAND O LAKES   CLOUDY    46  45  94 NE7       30.14R FOG
PHILLIPS       CLOUDY    47  44  89 N12G17    30.13R
TOMAHAWK       CLOUDY    48  47  96 CALM      30.11R FOG
MEDFORD        CLOUDY    49  47  93 N10       30.09R
MERRILL        CLOUDY    53  50  90 NE15      30.09R
$$

WIZ029-030-035-036-043>047-301400-
CENTRAL WISCONSIN

CITY           SKY/WX    TMP DP  RH WIND       PRES   REMARKS
WAUSAU         CLOUDY    54  49  83 VRB6G16   30.07R
MOSINEE        LGT RAIN  54  52  94 NE9       30.09R
MARSHFIELD     CLOUDY    55  49  80 NE12      30.08R
STEVENS POINT  DRIZZLE   51  49  90 NE8       30.08R
WAUPACA        LGT RAIN  54  52  95 NE8       30.08R
WAUTOMA        LGT RAIN  54  54 100 NE17G24   30.06R FOG
WISC RAPIDS    CLOUDY    55  48  77 E10       30.08R
CAMP DOUGLAS   DRIZZLE   55  55 100 NE13G20   30.05R
$$

WIZ011>013-019>022-031-037>040-048>050-301400-
NORTHEAST WISCONSIN

CITY           SKY/WX    TMP DP  RH WIND       PRES   REMARKS
ANTIGO         CLOUDY    51  48  90 NE15      30.08R
SHAWANO        LGT RAIN  55  52  89 NE9G17    30.08R
OCONTO         CLOUDY    51  50  97 NE10      30.07R
STURGEON BAY   CLOUDY    50  45  81 N13       30.10R
GREEN BAY      LGT RAIN  53  50  89 NE13      30.08R FOG
MANITOWOC      LGT RAIN  50  49  96 NE14G20   30.06R FOG
APPLETON       LGT RAIN  52  50  93 NE17G28   30.06R FOG
CLINTONVILLE   RAIN      54  52  94 NE6       30.07R
OSHKOSH        CLOUDY    54  50  86 NE21G32   30.05R
$$

WIZ032>034-041-042-053>061-301400-
SOUTHWEST WISCONSIN

CITY           SKY/WX    TMP DP  RH WIND       PRES   REMARKS
LA CROSSE      CLOUDY    56  50  80 N14       30.07R
SPARTA         DRIZZLE   53  52  94 N7        30.07R
VIROQUA        CLOUDY    55  55 100 N16G22    30.04R
BOSCOBEL       LGT RAIN  61  56  83 N6        30.01R
PRAIRIE DU CHI CLOUDY    60  55  84 NW9       30.00R
PLATTEVILLE    CLOUDY    65  64  96 W5        29.96R
$$

WIZ056-057-062-063-064-067-068-301400-
SOUTH CENTRAL WISCONSIN

CITY           SKY/WX    TMP DP  RH WIND       PRES   REMARKS
REEDSBURG      LGT RAIN  57  55  94 NE8G16    30.01R
BARABOO/DELLS  LGT RAIN  56  54  94 NE12G24   30.01R
LONE ROCK      CLOUDY    62  58  86 N16G23    29.97R
MINERAL POINT  LGT RAIN  63  61  94 N12       29.97R
MADISON        CLOUDY    67  63  87 SW5       29.95R
MIDDLETON      CLOUDY    67  65  94 CALM      29.96R
WATERTOWN      CLOUDY   N/A N/A N/A S5        29.95R
MONROE         CLOUDY    64  63  94 SW7       29.96S
JANESVILLE     PTSUNNY   66  64  94 S6        29.96R
$$

WIZ051-052-058>065-066-070>072-301400-
SOUTHEAST WISCONSIN

CITY           SKY/WX    TMP DP  RH WIND       PRES   REMARKS
MILWAUKEE      LGT RAIN  51  49  92 NE15G22   30.02R FOG
WAUKESHA       RAIN      52  52 100 NE8G22    30.02R
MILWAUKEE/TIMM LGT RAIN  52  48  87 MISG      30.03R
RACINE         RAIN      51  48  89 N17G23    30.03R FOG
BURLINGTON     LGT RAIN  64  63  97 CALM      29.98R
KENOSHA        LGT RAIN  61  59  93 MISG      29.99R FOG
FOND DU LAC    LGT RAIN  55  52  89 NE15G22   30.05R FOG
SHEBOYGAN      LGT RAIN  51  48  89 NE16G30   30.04R
WEST BEND      LGT RAIN  52  48  87 NE15G25   30.01R
JUNEAU         LGT RAIN  55  54  95 NE14G21   30.01R
$$

LSZ147-162-301400-
LAKE SUPERIOR

STATION/POSITION TIME  TEMP    WIND        PRES    WAVE
                       AIR SEA DIR/SP/G            HT/PER
                 (UTC) (F)     (DEG/KT/KT) (MB)    (FT/S)
W MID LAKE BUOY  1150   40 37   20/ 10/ 10   N/A     1/ 4
DEVILS ISLAND    1200   44      20/ 13/ 15   N/A
PORT WING        1200   45     340/  8/  9   N/A
SAXON HARBOR     1200   46      50/  5/  7   N/A
$$

LMZ867-665-643>646-301400-
LAKE MICHIGAN

STATION/POSITION TIME  TEMP    WIND        PRES    WAVE
                       AIR SEA DIR/SP/G            HT/PER
                 (UTC) (F)     (DEG/KT/KT) (MB)    (FT/S)
CHAMBERS ISLAND  1200   51     350/ 15/ 18   N/A
N MID LAKE BUOY  1150   41 37  330/  8/ 10   N/A     1/ 3
NORTHPORT PIER   1200   49     350/ 21/ 24   N/A
SISTER BAY       1248   50      10/ 13/ 18   N/A
ALGOMA LAKESHORE 1223          350/  9/ 14   N/A
KEWAUNEE LAKESHO 1200   48      20/  7/ 12   N/A
SHEBOYGAN LAKESH 1200   48      10/ 19/ 20   N/A
PORT WASHINGTON  1200   53      30/ 12/ 26   N/A
ATWATER BUOY     1200   50      10/ 14/ 16   N/A
MILWAUKEE LAKESH 1200   51      10/ 14/ 19   N/A
S MID LAKE BUOY  1150   49 38  230/  2/  4   N/A     1
KENOSHA   LAKESH 1200   61     200/  3/  5   N/A
$$

TC  - TEMPERATURE IN CELSIUS
VSB - VISIBILITY IN STATUTE MILES
WCI - WIND CHILL INDEX
HX  - HEAT INDEX




USA.gov is the U.S. government's official web portal to all federal, state and local government web resources and services.